Simultaneous Nadir Overpasses (SNOs) Predictions

Prediction of SNOs between FY3D and AQUA Satellite Orbit:

Table of predicted SNOs for the next 14.0 days since TLE Epoch: 12/28/2024
Index Date (FY3D) Time (FY3D) Lat,Lon (FY3D) SZA (FY3D ) Date (AQUA) Time (AQUA) Lat,Lon (AQUA) SZA (AQUA ) Distance(km) Time Diff (sec)
1 12/29/2024 04:36:36 -79.66, -86.05 76.76 12/29/2024 04:37:30 -79.66, -85.98 76.77 1.38 54
2 12/29/2024 05:27:13 79.39, 83.72 102.87 12/29/2024 05:26:43 79.40, 83.60 102.89 2.72 30
3 12/31/2024 14:58:19 79.68, -61.63 103.12 12/31/2024 14:59:32 79.68, -61.62 103.11 0.23 73
4 12/31/2024 15:48:55 -79.43, 108.00 77.24 12/31/2024 15:48:44 -79.43, 107.90 77.23 1.93 11
5 01/03/2025 02:10:40 79.49, 132.05 102.65 01/03/2025 02:10:46 79.50, 132.00 102.65 1.28 6
6 01/05/2025 12:32:24 -79.57, 155.95 77.49 01/05/2025 12:32:45 -79.57, 156.06 77.51 2.38 21
7 01/05/2025 13:23:01 79.31, -34.40 102.13 01/05/2025 13:21:58 79.31, -34.44 102.15 1.06 63
8 01/07/2025 22:54:07 79.60,-179.66 102.25 01/07/2025 22:54:42 79.60,-179.61 102.24 0.91 35
9 01/07/2025 23:44:43 -79.33, -9.99 78.13 01/07/2025 23:43:54 -79.34, -10.11 78.11 2.57 49
10 01/10/2025 09:15:49 -79.63,-155.30 78.05 01/10/2025 09:16:36 -79.63,-155.25 78.06 0.92 47



Historial Predications of SNOs between FY3D and AQUA
